Vertical_Velocity
-1 -1 -1 -1 -0 0 0 0 -0 -0 0 0 0 1 1 2 2 2 2 2 2 2 3 3 4 4 4 4 3 3 3 3 3 2 2 1 0 -0 -1 -2 -3 -4 -4 -5 -4 -4 -4 -4 -4 -4 -4 -3 -1 1 2 4 4 2 1 3 2 1 2 3 3 3 3 -0 -2
-1 -1 -1 -1 -1 -0 0 0 -0 -0 -1 -1 -0 -0 0 1 1 2 2 1 1 1 2 3 3 4 4 4 3 3 2 3 3 2 2 1 -0 -1 -1 -2 -2 -3 -3 -4 -4 -4 -4 -4 -4 -4 -5 -3 -1 -1 0 3 4 4 2 2 1 1 3 4 3 4 5 0 -1
-0 -0 -0 -1 -1 -0 0 0 0 -0 -1 -1 -1 -1 -0 0 1 1 1 1 0 1 1 2 3 3 4 3 3 2 1 1 2 2 2 1 0 -1 -2 -2 -2 -2 -3 -3 -3 -3 -3 -3 -3 -4 -4 -3 -2 -2 -1 2 4 3 1 1 2 3 3 1 2 5 6 2 0
-0 -0 -0 0 0 0 0 1 1 0 0 -0 -1 -1 -1 -1 -0 -0 0 0 -0 -0 0 1 2 3 3 3 2 1 1 0 1 1 2 1 1 -0 -1 -1 -2 -2 -2 -3 -4 -4 -4 -4 -3 -3 -3 -2 -3 -3 -2 1 2 1 -0 1 5 4 1 -0 4 6 5 1 1
0 0 0 1 1 1 1 1 1 1 1 0 -0 -1 -1 -1 -1 -1 -1 -0 -1 -1 -1 0 1 1 1 1 1 1 0 0 -0 0 1 1 1 1 0 -0 -1 -1 -2 -2 -3 -4 -4 -5 -4 -3 -2 -2 -2 -3 -2 -0 -0 -1 -1 3 4 3 1 2 5 5 3 1 4
1 1 1 1 1 1 1 1 0 0 0 0 -1 -1 -2 -2 -1 -1 -1 -1 -1 -1 -1 -1 -0 -0 -0 -0 -0 -0 -0 -0 -0 -0 -0 0 0 0 0 0 -0 -1 -2 -2 -3 -3 -4 -4 -4 -4 -2 -2 -2 -2 -2 -1 -3 -3 -1 3 2 2 3 4 3 3 3 2 6
1 1 1 0 0 0 0 -0 -0 -0 -0 -1 -1 -1 -2 -2 -2 -1 -1 -1 -1 -1 -1 -1 -1 -1 -1 -1 -1 -1 -0 0 -0 -1 -1 -1 -1 -0 -0 -0 -1 -2 -2 -3 -3 -4 -4 -4 -4 -3 -3 -2 -2 -2 -2 -2 -3 -3 -1 0 1 3 5 2 2 3 3 3 8
0 -0 -0 -1 -1 -1 -1 -1 -1 -1 -1 -1 -1 -2 -2 -3 -2 -2 -2 -2 -2 -2 -2 -1 -1 -1 -2 -2 -2 -1 -0 0 0 -0 -1 -1 -1 -1 -1 -1 -1 -2 -3 -5 -4 -4 -4 -4 -3 -3 -2 -3 -2 -2 -2 -3 -3 -3 -2 -0 2 4 4 2 3 3 3 4 7
-1 -1 -1 -1 -2 -2 -2 -3 -2 -2 -2 -2 -2 -3 -3 -3 -3 -2 -2 -1 -2 -2 -2 -2 -2 -2 -2 -3 -3 -2 -1 0 0 -0 -1 -2 -2 -2 -2 -2 -2 -3 -4 -5 -5 -4 -3 -3 -2 -2 -2 -3 -2 -2 -2 -3 -3 -2 -1 0 3 3 3 2 3 2 2 3 4
-1 -1 -1 -1 -1 -2 -2 -2 -3 -3 -3 -3 -3 -3 -4 -4 -4 -3 -2 -1 -1 -2 -2 -2 -2 -2 -2 -3 -3 -2 -2 -0 0 -0 -1 -2 -2 -3 -3 -3 -3 -4 -5 -6 -5 -4 -3 -3 -3 -3 -3 -3 -3 -3 -2 -2 -2 -2 -1 1 3 3 3 3 3 2 1 0 -1
-1 -1 -0 -0 -0 -1 -1 -1 -2 -2 -3 -3 -3 -3 -4 -4 -4 -3 -3 -2 -1 -2 -2 -2 -2 -2 -2 -2 -2 -2 -2 -1 -0 0 -0 -1 -2 -3 -3 -3 -4 -4 -5 -6 -5 -4 -3 -3 -4 -4 -5 -5 -4 -3 -2 -2 -1 -1 -1 1 3 4 4 4 4 2 0 -2 -2
-1 -1 -1 -0 -0 -0 -0 -1 -1 -2 -2 -2 -2 -2 -3 -4 -4 -4 -3 -2 -2 -2 -2 -3 -2 -3 -3 -2 -2 -2 -1 -1 -0 0 -0 -1 -2 -2 -3 -3 -4 -4 -5 -5 -4 -4 -3 -4 -5 -5 -6 -6 -5 -4 -2 -2 -2 -2 -1 1 3 4 5 5 4 2 -0 -2 -4
-1 -1 -1 -1 -0 -0 0 -0 -1 -1 -1 -2 -2 -2 -2 -3 -4 -4 -3 -3 -2 -2 -2 -3 -3 -3 -3 -3 -3 -2 -2 -1 -0 -0 -0 -1 -1 -2 -2 -3 -4 -4 -5 -5 -4 -4 -4 -5 -5 -6 -6 -6 -5 -4 -3 -3 -2 -2 -1 1 3 4 5 5 3 2 0 -2 -1
-1 -1 -1 -1 -0 -0 0 0 -0 -1 -1 -2 -2 -2 -2 -3 -4 -4 -3 -3 -3 -2 -2 -2 -3 -3 -3 -3 -3 -2 -2 -1 -0 -0 -0 -1 -2 -2 -2 -2 -3 -3 -4 -4 -4 -4 -4 -5 -6 -6 -6 -6 -5 -4 -4 -3 -3 -2 -1 -0 2 3 4 5 4 3 2 1 8
-2 -1 -1 -1 -1 -0 -0 0 0 -0 -0 -1 -2 -2 -1 -2 -3 -3 -3 -3 -2 -2 -2 -2 -2 -3 -3 -3 -3 -2 -2 -1 -0 0 -0 -1 -2 -2 -2 -2 -2 -3 -3 -4 -4 -4 -4 -5 -6 -6 -6 -5 -5 -4 -4 -3 -3 -2 -2 -1 1 3 5 6 6 6 6 7 13
-2 -2 -1 -1 -1 -1 -1 -0 -0 -0 -0 -1 -1 -1 -1 -1 -2 -3 -3 -2 -2 -1 -1 -1 -2 -2 -3 -3 -3 -2 -2 -1 -1 -0 0 -0 -1 -1 -2 -1 -2 -2 -2 -2 -3 -4 -4 -5 -5 -6 -6 -5 -4 -4 -4 -3 -3 -2 -1 -1 1 3 6 8 10 10 10 10 13
-2 -2 -2 -1 -1 -1 -1 -1 -1 -1 -1 -1 -1 -1 -1 -1 -1 -2 -2 -2 -2 -1 -0 -1 -2 -2 -2 -3 -2 -2 -1 -1 -1 -0 0 -0 -1 -1 -1 -1 -1 -1 -1 -2 -3 -4 -5 -5 -5 -5 -5 -5 -4 -4 -3 -3 -3 -2 -1 0 2 5 8 10 13 14 15 15 17
-2 -1 -1 -1 -1 -1 -1 -1 -1 -1 -1 -1 -1 -2 -2 -1 -1 -2 -2 -3 -2 -0 0 -0 -1 -1 -1 -2 -2 -1 -0 -0 -0 -0 -0 0 -0 -0 -1 -1 -1 -1 -1 -1 -2 -3 -4 -5 -5 -5 -5 -5 -4 -4 -3 -3 -3 -2 -0 1 3 7 11 14 21 26 30 32 34
-2 -1 -1 -1 -1 -1 -1 -1 -1 -1 -1 -1 -1 -2 -2 -2 -2 -2 -2 -3 -2 -1 0 0 -0 -0 -1 -1 -1 -1 0 1 1 0 -0 0 0 -0 -0 -1 -1 -0 -0 -1 -2 -2 -3 -4 -5 -5 -5 -5 -4 -4 -3 -3 -3 -2 -0 2 5 9 14 20 31 39 44 46 48
-2 -2 -1 -1 -1 -1 -1 -1 -1 -1 -1 -1 -1 -1 -2 -2 -2 -2 -2 -2 -2 -2 -1 -0 0 0 -0 -1 -1 -1 -0 1 1 1 0 -0 0 -0 -0 -0 -0 -1 -1 -2 -2 -2 -3 -4 -5 -5 -5 -5 -4 -4 -4 -3 -3 -2 0 3 6 9 13 20 30 37 41 43 44
-2 -2 -2 -1 -1 -1 -1 -1 -0 -0 -0 -0 -1 -1 -2 -2 -2 -2 -2 -2 -2 -2 -1 -1 0 1 1 -0 -1 -1 -1 0 1 1 0 -0 -0 -0 -0 0 0 -1 -2 -3 -2 -2 -2 -3 -4 -4 -5 -5 -5 -5 -5 -4 -3 -2 0 3 7 7 9 14 21 28 33 36 36
-2 -2 -1 -1 -1 -1 -1 -1 -0 0 0 -0 -1 -1 -1 -2 -2 -2 -2 -2 -2 -2 -1 -1 -0 1 1 1 0 -1 -1 -0 1 1 1 0 -0 -0 0 1 0 -1 -2 -3 -2 -1 -1 -2 -3 -3 -4 -4 -6 -6 -6 -4 -3 -1 1 4 6 7 7 8 15 22 28 31 32
-1 -1 -1 -1 -1 -1 -1 -0 0 0 -0 -1 -1 -1 -1 -2 -2 -2 -2 -2 -2 -2 -2 -1 -0 1 1 1 1 0 -0 -0 0 1 1 1 -0 -0 0 1 1 -1 -2 -3 -1 -1 -1 -1 -2 -2 -3 -3 -5 -6 -7 -5 -3 -1 1 3 6 7 8 7 12 18 24 27 28
-1 -2 -2 -2 -1 -1 -1 -0 0 0 -0 -1 -1 -2 -2 -2 -2 -2 -2 -2 -2 -2 -2 -1 -1 -0 1 1 1 0 0 0 1 1 1 1 1 0 0 1 1 -1 -2 -3 -1 -1 -0 -0 -1 -2 -2 -2 -3 -5 -6 -5 -3 -1 1 3 6 7 7 7 10 14 19 22 23
-1 -2 -2 -2 -2 -2 -1 -1 -1 -1 -1 -1 -1 -1 -1 -2 -1 -1 -1 -1 -1 -1 -1 -1 -1 -0 -0 0 0 0 1 1 1 2 2 2 1 1 1 1 0 -1 -2 -3 -2 -1 -0 1 -1 -1 -1 -1 -2 -3 -4 -5 -3 -1 1 3 5 6 7 7 9 11 14 17 18
-1 -1 -2 -2 -2 -2 -1 -1 -1 -1 -1 -1 -1 -1 -1 -1 -1 -0 -0 -0 -0 -0 -0 -0 -0 -0 -1 -1 -1 -0 1 1 2 2 2 2 2 2 1 1 0 -2 -4 -6 -5 -2 0 1 -0 -1 -1 -1 -2 -2 -3 -4 -2 -0 2 3 4 4 5 7 8 9 11 13 13
-0 -1 -1 -1 -1 -1 -1 -2 -1 -1 -1 -1 -1 -0 -0 -0 -0 -0 0 0 0 1 1 1 1 0 -0 -1 -1 -0 0 1 2 3 3 3 3 3 2 1 -1 -4 -6 -9 -8 -3 1 2 -1 -2 -2 -1 -2 -2 -3 -4 -2 -0 2 3 4 4 4 5 7 8 8 9 9
-0 -0 -0 -0 -1 -1 -1 -1 -1 -1 -1 -1 -1 -1 -0 -0 -0 -0 -0 0 1 1 2 2 2 1 1 -0 -1 -1 -0 1 2 3 3 4 4 4 3 1 -3 -6 -9 -11 -9 -3 2 3 -1 -3 -2 -1 -1 -2 -3 -4 -2 0 2 4 5 5 5 5 6 6 6 6 6
-0 -0 -0 -0 -0 -1 -1 -2 -2 -2 -2 -1 -1 -1 -1 -1 -1 -0 -0 -0 -0 1 1 2 3 3 2 1 -1 -1 -0 1 2 3 4 4 5 5 4 0 -5 -8 -9 -9 -7 -2 2 3 0 -1 -1 0 0 -1 -2 -4 -3 -0 2 4 5 5 5 4 4 4 3 2 2
-1 -1 -1 -0 -1 -1 -2 -2 -2 -2 -2 -2 -2 -2 -2 -1 -1 -1 -0 -1 -1 -0 0 2 3 4 3 2 1 0 -0 0 2 3 4 4 5 5 4 0 -5 -7 -6 -4 -4 -2 1 4 4 3 3 3 4 3 1 -3 -3 -1 1 4 4 4 3 2 2 1 1 0 0
-2 -2 -1 -1 -1 -2 -2 -3 -3 -3 -3 -3 -3 -3 -2 -2 -1 -1 -0 -0 -1 -1 -0 1 3 3 3 4 3 2 1 0 1 2 3 4 4 4 3 1 -3 -5 -4 -2 -3 -3 -0 4 6 6 5 4 5 5 4 1 -2 -2 0 3 4 4 3 1 1 0 0 0 0
-2 -2 -2 -2 -2 -2 -2 -3 -3 -3 -3 -4 -4 -4 -3 -2 -2 -2 -1 -1 -1 -1 -0 1 2 3 3 4 4 4 3 2 2 2 2 3 4 4 3 1 -2 -3 -4 -3 -5 -4 -2 3 4 4 3 2 2 3 4 3 0 -1 -1 2 3 4 3 2 1 1 1 1 0
-2 -2 -2 -2 -1 -2 -2 -2 -3 -3 -3 -4 -4 -4 -4 -3 -2 -2 -2 -2 -1 -1 -0 1 2 3 3 4 5 5 5 4 2 1 1 2 3 4 3 1 -1 -2 -3 -3 -4 -3 -0 2 3 3 3 2 2 2 3 4 2 1 -0 1 2 3 4 3 2 1 1 1 -0
-1 -1 -1 -1 -1 -1 -1 -2 -2 -2 -3 -3 -3 -3 -4 -3 -3 -2 -2 -2 -2 -2 -1 0 1 2 3 4 5 6 6 6 4 2 1 1 3 3 3 1 -1 -1 -1 -2 -3 -2 -1 -1 1 2 4 4 3 3 2 3 3 2 1 0 1 3 4 4 3 3 2 2 1
-1 -1 -0 -1 -0 -1 -1 -1 -2 -2 -2 -2 -2 -2 -3 -3 -3 -2 -2 -2 -2 -2 -1 -1 0 1 2 3 5 6 7 7 5 3 1 1 2 3 3 1 -0 -0 -0 -0 -1 -2 -3 -3 0 2 4 5 4 3 3 2 2 2 1 0 1 2 3 5 5 5 5 4 3
-1 -1 -0 -0 -0 -0 -1 -1 -2 -2 -2 -2 -1 -2 -2 -2 -3 -3 -2 -1 -1 -1 -1 -1 -0 0 1 2 4 6 7 7 6 4 2 1 2 2 2 1 0 -0 0 1 -0 -2 -3 -2 0 2 3 4 5 4 3 2 1 1 1 0 0 1 1 3 5 6 7 7 6
-1 -1 -0 -0 -0 -1 -1 -1 -2 -2 -1 -1 -1 -1 -2 -2 -2 -2 -2 -1 -0 -0 -0 -0 -0 -0 0 1 3 5 6 6 6 5 4 2 2 2 2 1 0 -0 0 1 0 -1 -2 -2 -1 1 2 3 4 5 5 4 2 1 0 -0 -1 -1 -1 -0 2 4 5 7 7
-1 -1 -1 -0 -0 -1 -1 -2 -2 -2 -1 -0 -1 -1 -2 -2 -2 -2 -2 -1 0 0 0 0 0 -0 -0 0 2 3 4 5 6 6 6 5 4 3 3 2 1 -0 -0 1 1 1 -0 -2 -1 -0 1 1 2 4 5 6 5 3 2 0 -1 -1 -2 -2 -1 -0 1 3 3
-0 -1 -1 -1 -1 -1 -2 -3 -3 -2 -1 -0 -0 -1 -1 -2 -2 -2 -2 -1 -0 0 1 1 0 -0 -1 -0 1 2 3 4 5 6 7 7 5 4 4 3 1 0 -0 1 1 1 1 0 0 -1 -2 -1 1 2 4 5 5 5 4 3 1 0 -1 -2 -2 -2 -2 -1 -1
-0 -0 -1 -1 -1 -1 -2 -3 -3 -3 -2 -1 -0 -0 -1 -1 -2 -2 -2 -2 -1 -0 1 1 1 -0 -0 -0 1 2 3 4 6 7 8 9 7 6 4 3 2 0 -0 0 1 1 2 2 1 -1 -2 -1 0 2 3 4 4 5 5 5 4 3 2 1 -0 -1 -2 -3 -3
-1 -0 -1 -1 -1 -1 -2 -2 -3 -3 -2 -1 -0 -0 -0 -1 -2 -2 -2 -2 -2 -1 -0 0 0 0 0 1 1 3 4 5 7 8 9 8 7 5 4 3 2 1 0 -0 0 1 1 2 1 -1 -2 -0 1 2 2 2 2 3 3 4 4 5 5 4 3 2 1 -1 -2
Height
5513 5511 5510 5509 5508 5506 5505 5504 5504 5503 5502 5501 5501 5500 5500 5500 5500 5500 5500 5500 5500 5500 5500 5500 5501 5501 5501 5501 5501 5500 5500 5500 5500 5500 5500 5499 5499 5499 5499 5499 5498 5498 5498 5498 5498 5498 5498 5498 5499 5500 5501 5502 5504 5505 5506 5507 5509 5510 5512 5514 5516 5519 5523 5526 5529 5532 5534 5537 5540
5512 5510 5508 5507 5506 5505 5504 5503 5502 5501 5500 5499 5499 5498 5498 5498 5498 5498 5498 5497 5497 5497 5498 5498 5498 5498 5498 5498 5498 5497 5497 5497 5497 5497 5496 5496 5496 5495 5495 5495 5494 5494 5494 5494 5494 5494 5494 5494 5494 5494 5495 5496 5498 5499 5500 5501 5502 5503 5505 5507 5509 5512 5515 5518 5521 5524 5527 5530 5533
5510 5509 5507 5505 5504 5503 5502 5501 5500 5499 5499 5498 5497 5496 5496 5496 5495 5495 5495 5495 5495 5495 5495 5495 5495 5495 5495 5495 5494 5494 5494 5494 5494 5494 5493 5493 5492 5492 5491 5491 5491 5490 5490 5489 5489 5489 5489 5489 5489 5489 5490 5491 5492 5493 5494 5494 5495 5497 5499 5500 5502 5505 5508 5511 5514 5517 5519 5523 5527
5509 5508 5506 5504 5503 5502 5501 5500 5499 5498 5497 5496 5496 5495 5494 5494 5494 5494 5493 5493 5493 5493 5493 5492 5492 5492 5492 5492 5491 5491 5491 5491 5490 5490 5490 5489 5489 5488 5488 5487 5487 5487 5486 5486 5485 5485 5485 5485 5485 5485 5485 5485 5486 5487 5487 5488 5489 5491 5492 5494 5496 5499 5502 5504 5507 5509 5512 5516 5520
5509 5507 5505 5503 5502 5500 5499 5498 5497 5496 5496 5495 5494 5494 5493 5492 5492 5492 5491 5491 5491 5490 5490 5490 5489 5489 5489 5489 5488 5488 5488 5488 5487 5487 5486 5486 5485 5485 5484 5484 5483 5483 5482 5482 5481 5481 5481 5480 5480 5480 5480 5481 5481 5481 5481 5482 5483 5485 5486 5488 5490 5493 5496 5498 5500 5503 5506 5510 5514
5508 5506 5504 5502 5501 5499 5498 5497 5496 5495 5494 5494 5493 5492 5491 5491 5490 5490 5489 5489 5489 5488 5488 5487 5487 5486 5486 5486 5485 5485 5485 5484 5484 5484 5483 5482 5482 5481 5481 5480 5480 5479 5479 5478 5478 5477 5477 5476 5476 5476 5476 5476 5476 5475 5475 5476 5477 5479 5480 5482 5485 5487 5489 5492 5494 5497 5501 5505 5509
5506 5504 5503 5501 5500 5498 5497 5496 5495 5494 5493 5492 5491 5490 5490 5489 5488 5488 5487 5487 5486 5486 5485 5485 5484 5484 5483 5483 5482 5482 5482 5481 5481 5480 5480 5479 5479 5478 5477 5477 5476 5475 5475 5474 5474 5473 5473 5473 5472 5472 5471 5471 5471 5470 5470 5471 5472 5473 5475 5477 5479 5481 5484 5486 5489 5492 5496 5500 5504
5505 5503 5502 5500 5499 5497 5496 5494 5493 5492 5491 5490 5489 5489 5488 5487 5486 5486 5485 5484 5484 5483 5483 5482 5481 5481 5480 5480 5479 5479 5479 5478 5478 5477 5476 5476 5475 5474 5474 5473 5473 5472 5471 5470 5470 5469 5469 5469 5468 5467 5467 5466 5466 5465 5465 5466 5466 5468 5469 5471 5473 5475 5478 5480 5483 5487 5491 5495 5499
5504 5502 5500 5499 5497 5496 5494 5493 5492 5491 5490 5489 5488 5487 5486 5485 5484 5483 5483 5482 5481 5481 5480 5479 5479 5478 5477 5477 5476 5476 5475 5475 5474 5474 5473 5472 5472 5471 5470 5470 5469 5468 5467 5467 5466 5465 5465 5464 5464 5463 5462 5461 5461 5460 5460 5461 5462 5463 5464 5466 5468 5470 5473 5475 5478 5482 5486 5490 5493
5502 5500 5499 5497 5496 5494 5493 5491 5490 5489 5488 5487 5485 5484 5483 5482 5481 5480 5480 5479 5479 5478 5477 5476 5476 5475 5474 5474 5473 5472 5472 5471 5471 5470 5470 5469 5468 5468 5467 5466 5466 5465 5464 5463 5462 5462 5461 5460 5460 5459 5458 5457 5456 5456 5456 5456 5457 5459 5460 5461 5463 5465 5468 5470 5474 5477 5481 5485 5488
5500 5498 5497 5495 5494 5492 5490 5489 5488 5486 5485 5484 5483 5482 5481 5479 5479 5478 5477 5476 5475 5474 5474 5473 5472 5472 5471 5470 5469 5469 5468 5468 5467 5467 5466 5465 5464 5464 5463 5463 5462 5461 5460 5459 5459 5458 5457 5456 5456 5455 5454 5453 5452 5452 5452 5452 5453 5454 5455 5457 5459 5461 5463 5466 5469 5473 5477 5481 5485
5497 5496 5494 5493 5491 5489 5488 5486 5485 5484 5482 5481 5480 5479 5478 5477 5475 5474 5474 5473 5472 5471 5470 5470 5469 5468 5468 5467 5466 5465 5465 5464 5464 5463 5462 5461 5461 5460 5459 5459 5458 5457 5456 5456 5455 5454 5454 5452 5451 5451 5450 5449 5449 5448 5448 5449 5449 5450 5451 5453 5454 5456 5459 5462 5465 5469 5474 5478 5483
5494 5493 5491 5489 5488 5486 5485 5483 5482 5480 5479 5478 5477 5476 5474 5474 5472 5471 5470 5469 5469 5468 5467 5466 5465 5464 5464 5463 5462 5462 5461 5460 5460 5459 5458 5458 5457 5456 5455 5455 5454 5453 5453 5452 5451 5450 5449 5449 5448 5447 5446 5445 5444 5444 5444 5444 5445 5446 5447 5449 5450 5452 5454 5458 5461 5466 5471 5475 5479
5491 5489 5488 5486 5484 5483 5481 5480 5479 5477 5476 5474 5473 5472 5471 5470 5469 5468 5467 5466 5465 5464 5464 5463 5462 5461 5460 5459 5459 5458 5457 5457 5456 5455 5454 5454 5453 5452 5451 5451 5450 5449 5449 5448 5447 5446 5445 5445 5444 5443 5442 5441 5441 5440 5440 5440 5441 5442 5443 5444 5446 5448 5451 5454 5459 5463 5468 5472 5475
5488 5486 5484 5482 5481 5479 5478 5476 5475 5473 5472 5471 5469 5468 5467 5466 5465 5464 5463 5462 5461 5460 5459 5459 5458 5457 5456 5455 5454 5454 5453 5453 5452 5451 5451 5450 5449 5448 5448 5447 5446 5446 5445 5444 5443 5442 5441 5441 5440 5439 5439 5438 5437 5437 5436 5437 5437 5438 5439 5441 5443 5445 5448 5452 5456 5460 5464 5468 5471
5484 5482 5480 5479 5477 5475 5474 5472 5471 5469 5468 5467 5465 5464 5463 5462 5461 5460 5459 5458 5457 5456 5455 5455 5454 5453 5452 5451 5450 5450 5449 5449 5448 5447 5447 5446 5445 5444 5444 5443 5443 5442 5441 5440 5439 5438 5437 5437 5436 5435 5435 5434 5434 5433 5433 5433 5433 5434 5435 5437 5439 5442 5445 5450 5454 5458 5461 5465 5469
5480 5478 5476 5474 5473 5471 5469 5468 5467 5465 5464 5462 5461 5460 5459 5458 5457 5456 5455 5454 5453 5452 5451 5450 5449 5449 5448 5447 5446 5446 5445 5444 5444 5443 5443 5442 5441 5440 5440 5439 5439 5438 5438 5437 5436 5434 5434 5433 5432 5431 5431 5430 5430 5430 5429 5429 5429 5430 5432 5434 5436 5439 5443 5448 5453 5458 5461 5464 5468
5475 5474 5472 5470 5469 5467 5465 5464 5462 5461 5459 5458 5457 5455 5454 5453 5452 5451 5450 5449 5449 5448 5447 5446 5445 5444 5444 5443 5442 5441 5441 5440 5440 5439 5439 5438 5437 5437 5436 5435 5435 5434 5434 5433 5432 5431 5430 5429 5428 5428 5427 5427 5427 5426 5426 5426 5426 5427 5428 5431 5434 5437 5441 5446 5453 5459 5462 5464 5465
5471 5469 5467 5465 5464 5462 5460 5459 5458 5456 5455 5453 5452 5451 5449 5449 5447 5446 5445 5445 5444 5443 5442 5442 5441 5440 5439 5439 5438 5437 5437 5436 5435 5435 5434 5434 5434 5433 5432 5432 5431 5431 5430 5429 5429 5428 5426 5425 5424 5424 5424 5423 5423 5423 5423 5423 5423 5423 5425 5427 5431 5434 5438 5444 5449 5453 5454 5456 5458
5466 5464 5462 5460 5459 5457 5455 5454 5453 5451 5450 5449 5447 5446 5444 5444 5443 5442 5441 5440 5439 5438 5438 5437 5436 5435 5435 5434 5433 5433 5432 5432 5431 5431 5430 5430 5429 5429 5429 5428 5427 5427 5426 5426 5425 5424 5423 5422 5421 5420 5420 5420 5419 5419 5419 5419 5419 5420 5422 5424 5427 5430 5433 5436 5439 5442 5444 5447 5448
5461 5459 5457 5455 5454 5452 5450 5449 5447 5446 5445 5444 5442 5441 5439 5439 5437 5437 5436 5435 5434 5433 5433 5432 5432 5431 5430 5430 5429 5428 5428 5428 5427 5427 5426 5426 5426 5425 5425 5424 5424 5423 5423 5422 5422 5421 5420 5419 5418 5417 5417 5416 5416 5416 5416 5416 5416 5417 5419 5421 5423 5425 5426 5428 5431 5434 5438 5441 5443
5456 5454 5452 5450 5448 5447 5445 5444 5442 5441 5439 5438 5437 5435 5434 5433 5432 5431 5430 5430 5429 5428 5428 5427 5427 5426 5426 5425 5424 5424 5423 5423 5423 5423 5422 5422 5421 5421 5421 5420 5420 5419 5419 5419 5418 5418 5417 5416 5415 5414 5414 5413 5413 5413 5413 5413 5414 5414 5416 5417 5419 5421 5422 5424 5427 5430 5434 5436 5438
5451 5449 5447 5445 5443 5441 5440 5438 5437 5435 5434 5432 5431 5430 5429 5428 5427 5426 5425 5424 5424 5423 5423 5422 5422 5421 5421 5420 5420 5419 5419 5419 5418 5418 5418 5418 5417 5417 5417 5416 5416 5415 5415 5415 5414 5415 5414 5413 5412 5412 5411 5410 5410 5410 5410 5410 5411 5412 5413 5414 5417 5418 5419 5421 5423 5426 5429 5431 5433
5446 5444 5442 5439 5438 5436 5434 5433 5431 5429 5428 5427 5425 5424 5423 5422 5422 5421 5420 5419 5419 5418 5418 5417 5417 5416 5416 5415 5415 5415 5414 5414 5414 5414 5414 5414 5413 5413 5412 5412 5412 5411 5411 5411 5411 5412 5412 5409 5409 5409 5408 5408 5408 5408 5408 5408 5409 5409 5411 5412 5414 5415 5417 5418 5420 5422 5425 5427 5429
5441 5439 5437 5434 5433 5431 5429 5427 5426 5424 5422 5421 5419 5419 5418 5417 5416 5415 5415 5414 5414 5413 5413 5412 5412 5411 5411 5410 5410 5410 5410 5409 5409 5409 5409 5409 5409 5409 5408 5408 5408 5407 5407 5407 5407 5409 5409 5406 5406 5406 5405 5405 5405 5405 5406 5406 5407 5408 5409 5410 5412 5413 5415 5416 5418 5419 5421 5423 5425
5438 5435 5433 5430 5428 5426 5424 5422 5420 5419 5417 5415 5414 5413 5412 5411 5410 5410 5409 5409 5409 5409 5408 5408 5407 5406 5406 5405 5405 5405 5405 5405 5405 5405 5405 5405 5405 5404 5404 5404 5404 5403 5403 5403 5404 5405 5405 5404 5403 5403 5403 5403 5403 5403 5404 5404 5405 5406 5407 5409 5410 5411 5413 5414 5416 5417 5418 5419 5421
5434 5431 5429 5426 5424 5422 5419 5417 5415 5414 5412 5410 5409 5408 5407 5406 5405 5404 5404 5404 5404 5403 5403 5403 5402 5402 5401 5400 5400 5400 5400 5400 5400 5401 5401 5401 5401 5401 5400 5400 5399 5399 5398 5399 5401 5401 5401 5401 5400 5400 5400 5400 5400 5400 5401 5402 5403 5404 5405 5406 5408 5409 5411 5413 5414 5414 5415 5417 5418
5430 5428 5425 5423 5420 5418 5415 5413 5411 5409 5407 5405 5404 5403 5401 5400 5399 5399 5398 5398 5398 5398 5398 5398 5398 5397 5397 5396 5396 5395 5396 5396 5396 5396 5396 5397 5397 5397 5396 5396 5395 5394 5394 5396 5397 5397 5398 5398 5397 5397 5397 5397 5397 5398 5399 5400 5401 5402 5403 5404 5405 5407 5409 5410 5411 5412 5413 5414 5415
5427 5424 5421 5419 5416 5414 5411 5409 5406 5404 5402 5401 5399 5398 5396 5395 5394 5393 5393 5392 5392 5392 5392 5393 5393 5393 5392 5392 5391 5391 5391 5391 5391 5392 5392 5392 5393 5392 5392 5392 5390 5389 5390 5393 5393 5393 5394 5395 5394 5394 5394 5395 5395 5395 5396 5397 5398 5399 5400 5401 5402 5404 5405 5406 5407 5408 5409 5410 5412
5424 5421 5418 5415 5412 5409 5407 5404 5402 5399 5398 5396 5394 5393 5391 5390 5389 5388 5387 5387 5386 5386 5386 5387 5387 5388 5388 5387 5387 5386 5386 5387 5387 5387 5387 5388 5388 5388 5388 5387 5386 5385 5387 5389 5389 5390 5391 5392 5392 5392 5392 5393 5393 5393 5394 5395 5396 5396 5397 5398 5399 5400 5401 5402 5404 5405 5406 5407 5409
5420 5417 5414 5411 5408 5405 5403 5400 5398 5395 5393 5391 5389 5388 5387 5385 5384 5383 5382 5381 5381 5380 5381 5381 5382 5382 5383 5383 5382 5382 5382 5382 5382 5382 5383 5383 5384 5384 5384 5383 5382 5382 5383 5386 5387 5386 5387 5389 5389 5389 5390 5390 5390 5391 5392 5393 5394 5394 5394 5395 5396 5397 5398 5399 5400 5402 5403 5404 5406
5417 5414 5411 5408 5405 5402 5399 5396 5394 5391 5389 5387 5385 5383 5382 5380 5379 5378 5377 5376 5376 5375 5375 5375 5376 5377 5377 5378 5378 5378 5378 5378 5378 5378 5378 5378 5379 5379 5379 5379 5378 5378 5379 5381 5383 5383 5383 5385 5386 5386 5386 5387 5387 5388 5389 5390 5391 5392 5392 5393 5393 5394 5394 5396 5397 5399 5400 5402 5403
5414 5410 5407 5404 5401 5399 5395 5393 5390 5387 5385 5383 5381 5379 5377 5376 5374 5374 5372 5371 5370 5370 5370 5370 5371 5371 5372 5372 5373 5373 5373 5373 5373 5373 5373 5374 5374 5374 5374 5374 5374 5374 5375 5376 5378 5379 5380 5381 5382 5383 5383 5384 5384 5385 5386 5387 5388 5389 5390 5390 5390 5391 5391 5392 5394 5395 5397 5398 5399
5411 5408 5404 5401 5398 5395 5392 5389 5387 5384 5381 5379 5377 5375 5373 5371 5370 5369 5368 5367 5366 5365 5365 5365 5365 5365 5366 5367 5368 5369 5369 5369 5369 5368 5368 5369 5369 5370 5370 5370 5370 5371 5371 5372 5374 5376 5377 5376 5378 5379 5380 5380 5381 5382 5383 5384 5385 5386 5387 5388 5388 5388 5389 5389 5390 5392 5394 5395 5396
5408 5405 5401 5398 5395 5392 5389 5386 5383 5380 5378 5376 5373 5371 5369 5367 5366 5364 5363 5362 5361 5360 5360 5360 5360 5360 5361 5361 5363 5364 5364 5364 5364 5364 5364 5364 5364 5365 5365 5366 5366 5367 5368 5369 5370 5372 5373 5372 5374 5375 5376 5377 5378 5379 5379 5380 5382 5383 5384 5385 5386 5386 5387 5387 5388 5389 5390 5392 5393
5405 5402 5399 5395 5392 5389 5386 5383 5380 5377 5374 5372 5370 5368 5365 5364 5362 5360 5359 5358 5357 5356 5355 5355 5355 5355 5355 5356 5357 5358 5359 5360 5360 5359 5359 5359 5360 5360 5361 5361 5362 5363 5364 5365 5366 5367 5369 5371 5371 5371 5373 5374 5374 5375 5376 5377 5379 5380 5381 5382 5384 5384 5385 5385 5386 5387 5388 5389 5389
5402 5399 5395 5392 5389 5386 5382 5379 5376 5374 5371 5369 5366 5364 5362 5360 5358 5356 5355 5354 5353 5352 5351 5351 5350 5350 5350 5351 5352 5353 5354 5355 5355 5355 5355 5355 5356 5356 5357 5357 5358 5358 5359 5361 5362 5363 5365 5368 5368 5368 5369 5370 5371 5372 5373 5374 5375 5377 5378 5379 5380 5382 5383 5384 5384 5384 5385 5386 5387
5399 5396 5393 5389 5386 5383 5379 5376 5373 5370 5368 5366 5363 5361 5358 5356 5354 5352 5351 5350 5349 5348 5347 5346 5346 5345 5345 5346 5346 5347 5349 5349 5350 5351 5351 5352 5352 5352 5352 5353 5353 5354 5355 5356 5358 5359 5360 5362 5365 5365 5364 5366 5367 5369 5370 5371 5372 5374 5375 5376 5377 5379 5380 5381 5382 5382 5383 5384 5384
5396 5393 5389 5386 5383 5379 5376 5373 5370 5367 5365 5362 5360 5358 5355 5353 5351 5349 5347 5346 5345 5344 5343 5343 5342 5341 5341 5341 5341 5342 5343 5344 5346 5347 5348 5348 5348 5348 5348 5349 5349 5350 5351 5352 5354 5355 5356 5358 5360 5361 5361 5362 5363 5365 5366 5367 5369 5370 5371 5373 5374 5375 5376 5377 5378 5379 5380 5380 5382
5394 5390 5386 5383 5380 5377 5374 5370 5367 5364 5362 5359 5357 5354 5352 5350 5348 5346 5344 5342 5341 5340 5339 5339 5338 5337 5337 5337 5337 5338 5339 5340 5341 5343 5343 5344 5344 5344 5344 5344 5345 5345 5346 5348 5349 5351 5352 5354 5355 5357 5358 5358 5360 5361 5362 5364 5365 5366 5368 5369 5371 5372 5373 5374 5375 5376 5376 5377 5378
5391 5387 5384 5380 5377 5374 5371 5368 5364 5362 5359 5356 5354 5352 5349 5347 5345 5343 5341 5339 5338 5337 5336 5335 5334 5334 5333 5333 5334 5334 5334 5335 5336 5338 5339 5339 5339 5339 5339 5340 5341 5341 5342 5343 5345 5346 5348 5349 5351 5352 5354 5354 5356 5358 5359 5360 5361 5362 5364 5365 5367 5368 5369 5370 5371 5372 5373 5374 5374